TimeEDT,TemperatureF,Dew PointF,Humidity,Sea Level PressureIn,VisibilityMPH,Wind Direction,Wind SpeedMPH,Gust SpeedMPH,PrecipitationIn,Events,Conditions,WindDirDegrees,DateUTC
12:54 AM,46.9,46.9,100,30.26,10.0,North,3.5,-,N/A,,Clear,350,2013-09-28 04:54:00
1:54 AM,46.9,46.0,97,30.26,10.0,North,3.5,-,0.01,,Clear,10,2013-09-28 05:54:00
2:54 AM,45.0,45.0,100,30.26,10.0,North,5.8,-,N/A,,Clear,350,2013-09-28 06:54:00
3:54 AM,44.1,44.1,100,30.27,10.0,North,5.8,-,N/A,,Clear,350,2013-09-28 07:54:00
4:54 AM,44.1,44.1,100,30.27,10.0,Calm,Calm,-,N/A,,Clear,0,2013-09-28 08:54:00
5:22 AM,42.8,42.8,100,30.28,8.0,Calm,Calm,-,N/A,,Scattered Clouds,0,2013-09-28 09:22:00
5:30 AM,42.8,42.8,100,30.28,5.0,Calm,Calm,-,N/A,,Mostly Cloudy,0,2013-09-28 09:30:00
5:54 AM,43.0,43.0,100,30.29,8.0,NNE,4.6,-,N/A,,Mostly Cloudy,20,2013-09-28 09:54:00
6:05 AM,42.8,42.8,100,30.28,1.8,NNE,3.5,-,N/A,,Mostly Cloudy,20,2013-09-28 10:05:00
6:09 AM,42.8,42.8,100,30.29,0.8,NNE,3.5,-,N/A,,Mostly Cloudy,30,2013-09-28 10:09:00
6:20 AM,42.8,42.8,100,30.29,0.2,NE,4.6,-,N/A,Fog,Fog,40,2013-09-28 10:20:00
6:35 AM,42.8,42.8,100,30.29,0.5,NE,3.5,-,N/A,Fog,Fog,50,2013-09-28 10:35:00
6:45 AM,42.8,42.8,100,30.30,0.2,NE,4.6,-,N/A,Fog,Fog,40,2013-09-28 10:45:00
6:54 AM,43.0,43.0,100,30.30,0.2,NNE,3.5,-,N/A,Fog,Fog,30,2013-09-28 10:54:00
7:54 AM,43.0,43.0,100,30.33,0.2,North,5.8,-,N/A,Fog,Fog,10,2013-09-28 11:54:00
8:54 AM,46.0,46.0,100,30.34,0.2,NNE,3.5,-,N/A,Fog,Fog,30,2013-09-28 12:54:00
9:04 AM,46.4,46.4,100,30.32,0.5,Calm,Calm,-,N/A,Fog,Fog,0,2013-09-28 13:04:00
9:14 AM,46.4,46.4,100,30.33,2.0,North,3.5,-,N/A,,Overcast,10,2013-09-28 13:14:00
9:22 AM,46.4,46.4,100,30.33,7.0,NNE,3.5,-,N/A,,Overcast,20,2013-09-28 13:22:00
9:29 AM,48.2,48.2,100,30.33,10.0,NE,3.5,-,N/A,,Overcast,40,2013-09-28 13:29:00
9:54 AM,48.9,48.9,100,30.35,10.0,NE,3.5,-,N/A,,Overcast,50,2013-09-28 13:54:00
10:54 AM,52.0,51.1,97,30.36,10.0,North,3.5,-,N/A,,Overcast,10,2013-09-28 14:54:00
11:54 AM,55.9,53.1,90,30.35,10.0,Variable,4.6,-,N/A,,Overcast,0,2013-09-28 15:54:00
12:12 PM,60.8,51.8,72,30.33,10.0,Variable,4.6,-,N/A,,Mostly Cloudy,0,2013-09-28 16:12:00
12:33 PM,60.8,51.8,72,30.32,10.0,Calm,Calm,-,N/A,,Mostly Cloudy,0,2013-09-28 16:33:00
12:54 PM,61.0,52.0,72,30.32,10.0,SSW,5.8,-,N/A,,Overcast,210,2013-09-28 16:54:00
1:04 PM,60.8,51.8,72,30.31,10.0,SSW,5.8,-,N/A,,Overcast,200,2013-09-28 17:04:00
1:16 PM,62.6,51.8,68,30.31,10.0,Calm,Calm,-,N/A,,Overcast,0,2013-09-28 17:16:00
1:54 PM,64.9,50.0,58,30.30,10.0,Variable,4.6,-,N/A,,Overcast,0,2013-09-28 17:54:00
2:54 PM,64.0,48.9,58,30.29,10.0,ESE,3.5,-,N/A,,Overcast,110,2013-09-28 18:54:00
3:54 PM,64.9,48.0,54,30.27,10.0,Variable,4.6,-,N/A,,Overcast,0,2013-09-28 19:54:00
4:54 PM,64.0,48.9,58,30.26,10.0,SE,6.9,-,N/A,,Overcast,130,2013-09-28 20:54:00
5:54 PM,63.0,48.9,60,30.27,10.0,Variable,4.6,-,N/A,,Overcast,0,2013-09-28 21:54:00
6:54 PM,60.1,48.9,67,30.26,10.0,SE,3.5,-,N/A,,Mostly Cloudy,140,2013-09-28 22:54:00
7:54 PM,55.9,48.9,77,30.27,10.0,SE,3.5,-,N/A,,Partly Cloudy,140,2013-09-28 23:54:00
8:54 PM,55.0,48.9,80,30.27,10.0,ESE,3.5,-,N/A,,Clear,120,2013-09-29 00:54:00
9:54 PM,48.9,48.0,97,30.26,10.0,Calm,Calm,-,N/A,,Clear,0,2013-09-29 01:54:00
10:54 PM,46.9,46.9,100,30.26,10.0,North,4.6,-,N/A,,Clear,350,2013-09-29 02:54:00
11:54 PM,46.0,45.0,96,30.25,10.0,North,4.6,-,0.01,,Clear,350,2013-09-29 03:54:00